�������l�o���
Date,Time,MP-1(��Sv/h),MP-2(��Sv/h),MP-3(��Sv/h),MP-4(��Sv/h),MP-5(��Sv/h),MP-6(��Sv/h),MP-7(��Sv/h),MP-8(��Sv/h),����,����(m/s),���J
2021/09/06,00:00,0.578,0.853,0.543,1.044,0.722,0.354,0.612,0.574,�k�k��,7.8,��
2021/09/06,00:10,0.577,0.853,0.542,1.042,0.722,0.355,0.611,0.573,�k�k��,6.3,��
2021/09/06,00:20,0.578,0.849,0.541,1.044,0.724,0.354,0.612,0.576,�k�k��,5.9,��
2021/09/06,00:30,0.579,0.851,0.542,1.044,0.722,0.354,0.614,0.574,�k�k��,6.9,��
2021/09/06,00:40,0.579,0.850,0.542,1.044,0.723,0.353,0.611,0.574,�k�k��,6.8,��
2021/09/06,00:50,0.579,0.851,0.542,1.041,0.722,0.354,0.611,0.577,�k�k��,5.8,��
2021/09/06,01:00,0.578,0.851,0.543,1.043,0.722,0.354,0.611,0.574,�k�k��,4.0,�L
2021/09/06,01:10,0.577,0.852,0.542,1.044,0.723,0.353,0.612,0.574,�k�k��,4.8,�L
2021/09/06,01:20,0.576,0.851,0.541,1.042,0.718,0.353,0.612,0.574,�k�k��,5.6,�L
2021/09/06,01:30,0.574,0.848,0.540,1.041,0.718,0.354,0.610,0.573,�k��,6.2,�L
2021/09/06,01:40,0.571,0.842,0.535,1.035,0.711,0.351,0.607,0.573,�k,3.4,�L
2021/09/06,01:50,0.574,0.842,0.535,1.034,0.709,0.350,0.607,0.571,�k��,2.8,�L
2021/09/06,02:00,0.574,0.841,0.535,1.035,0.708,0.351,0.608,0.571,�k�k��,6.0,�L
2021/09/06,02:10,0.574,0.844,0.537,1.034,0.712,0.352,0.607,0.571,�k�k��,7.3,�L
2021/09/06,02:20,0.572,0.844,0.536,1.033,0.711,0.351,0.607,0.570,�k�k��,6.8,�L
2021/09/06,02:30,0.575,0.844,0.537,1.034,0.712,0.351,0.607,0.572,�k�k��,6.3,�L
2021/09/06,02:40,0.574,0.843,0.536,1.035,0.712,0.350,0.607,0.571,�k�k��,6.7,��
2021/09/06,02:50,0.574,0.845,0.537,1.035,0.714,0.351,0.606,0.570,�k�k��,6.8,�L
2021/09/06,03:00,0.572,0.843,0.535,1.035,0.715,0.352,0.605,0.570,�k�k��,6.9,�L
2021/09/06,03:10,0.570,0.842,0.535,1.033,0.713,0.351,0.605,0.571,�k�k��,6.4,�L
2021/09/06,03:20,0.570,0.840,0.537,1.033,0.715,0.351,0.605,0.571,�k�k��,6.5,�L
2021/09/06,03:30,0.567,0.842,0.534,1.032,0.713,0.350,0.605,0.571,�k�k��,6.7,�L
2021/09/06,03:40,0.570,0.841,0.533,1.031,0.715,0.351,0.607,0.571,�k�k��,6.5,�L
2021/09/06,03:50,0.569,0.841,0.535,1.033,0.714,0.351,0.607,0.569,�k�k��,6.8,�L
2021/09/06,04:00,0.569,0.839,0.536,1.034,0.714,0.349,0.606,0.570,�k�k��,6.1,��
2021/09/06,04:10,0.570,0.843,0.537,1.035,0.714,0.350,0.606,0.573,�k�k��,6.2,��
2021/09/06,04:20,0.570,0.843,0.538,1.032,0.715,0.351,0.605,0.571,�k�k��,6.6,��
2021/09/06,04:30,0.570,0.845,0.536,1.035,0.716,0.352,0.607,0.571,�k�k��,6.3,��
2021/09/06,04:40,0.571,0.844,0.538,1.034,0.716,0.350,0.606,0.573,�k�k��,7.0,��
2021/09/06,04:50,0.571,0.846,0.537,1.035,0.717,0.352,0.608,0.575,�k�k��,6.2,�L
2021/09/06,05:00,0.571,0.846,0.537,1.036,0.715,0.351,0.607,0.573,�k�k��,5.6,�L
2021/09/06,05:10,0.574,0.844,0.539,1.037,0.714,0.352,0.608,0.573,�k�k��,6.8,�L
2021/09/06,05:20,0.571,0.844,0.536,1.035,0.717,0.352,0.606,0.575,�k,6.6,�L
2021/09/06,05:30,0.569,0.845,0.538,1.035,0.716,0.350,0.607,0.571,�k�k��,7.1,�L
2021/09/06,05:40,0.572,0.846,0.537,1.035,0.716,0.352,0.608,0.571,�k�k��,7.4,��
2021/09/06,05:50,0.573,0.846,0.538,1.036,0.717,0.351,0.608,0.573,�k�k��,7.5,��
2021/09/06,06:00,0.572,0.847,0.538,1.036,0.717,0.351,0.608,0.572,�k�k��,6.5,��
2021/09/06,06:10,0.571,0.848,0.537,1.038,0.719,0.352,0.608,0.571,�k�k��,5.5,�L
2021/09/06,06:20,0.573,0.848,0.537,1.034,0.721,0.352,0.607,0.574,�k�k��,6.6,�L
2021/09/06,06:30,0.573,0.848,0.539,1.036,0.721,0.352,0.608,0.573,�k�k��,6.5,�L
2021/09/06,06:40,0.573,0.848,0.538,1.037,0.718,0.351,0.608,0.573,�k�k��,7.0,�L
2021/09/06,06:50,0.573,0.847,0.540,1.036,0.720,0.352,0.608,0.573,�k�k��,6.1,�L
2021/09/06,07:00,0.573,0.846,0.540,1.041,0.719,0.353,0.609,0.573,�k�k��,6.3,�L
2021/09/06,07:10,0.573,0.847,0.540,1.036,0.720,0.354,0.607,0.574,�k�k��,5.9,�L
2021/09/06,07:20,0.573,0.844,0.540,1.035,0.716,0.352,0.607,0.573,�k��,8.8,�L
2021/09/06,07:30,0.570,0.839,0.540,1.034,0.711,0.353,0.606,0.572,�k�k��,9.3,�L
2021/09/06,07:40,0.569,0.838,0.538,1.031,0.712,0.354,0.606,0.570,�k,7.9,�L
2021/09/06,07:50,0.569,0.833,0.538,1.026,0.709,0.353,0.606,0.571,�k,7.5,�L
2021/09/06,08:00,0.567,0.830,0.536,1.020,0.706,0.352,0.604,0.571,�k�k��,7.1,�L
2021/09/06,08:10,0.566,0.827,0.535,1.017,0.704,0.353,0.605,0.569,�k,7.1,�L
2021/09/06,08:20,0.564,0.827,0.538,1.015,0.704,0.352,0.603,0.569,�k�k��,5.7,�L
2021/09/06,08:30,0.563,0.825,0.536,1.008,0.702,0.353,0.602,0.568,�k��,5.4,�L
2021/09/06,08:40,0.564,0.823,0.535,1.009,0.699,0.351,0.602,0.567,�k�k��,4.5,�L
2021/09/06,08:50,0.564,0.826,0.535,1.008,0.700,0.350,0.601,0.565,-,CALM,�L
2021/09/06,09:00,0.563,0.822,0.534,1.007,0.701,0.352,0.600,0.567,�k�k��,5.8,�L
2021/09/06,09:10,0.564,0.823,0.533,1.005,0.699,0.352,0.600,0.566,�k�k��,5.7,�L
2021/09/06,09:20,0.567,0.826,0.536,1.009,0.699,0.353,0.600,0.567,�k�k��,5.4,�L
2021/09/06,09:30,0.568,0.828,0.535,1.008,0.701,0.354,0.601,0.567,�k��,4.4,�L
2021/09/06,09:40,0.569,0.829,0.537,1.009,0.701,0.352,0.601,0.567,�k�k��,5.1,�L
2021/09/06,09:50,0.565,0.827,0.534,1.002,0.696,0.353,0.598,0.565,�k�k��,6.1,�L
2021/09/06,10:00,0.566,0.827,0.534,1.004,0.698,0.353,0.600,0.567,�k�k��,4.9,�L
2021/09/06,10:10,0.568,0.827,0.537,1.006,0.699,0.356,0.600,0.567,�k�k��,4.3,�L
2021/09/06,10:20,0.568,0.829,0.535,1.008,0.700,0.354,0.601,0.568,�k,2.8,�L
2021/09/06,10:30,0.568,0.830,0.535,1.009,0.699,0.354,0.602,0.567,�k�k��,3.8,�L
2021/09/06,10:40,0.569,0.830,0.535,1.009,0.700,0.354,0.603,0.567,�k�k��,5.3,�L
2021/09/06,10:50,0.569,0.831,0.536,1.011,0.698,0.354,0.603,0.566,�k��,5.4,�L
2021/09/06,11:00,0.569,0.827,0.534,1.010,0.698,0.353,0.600,0.566,�k�k��,6.5,�L
2021/09/06,11:10,0.567,0.827,0.534,1.007,0.694,0.352,0.601,0.567,�k,7.5,�L
2021/09/06,11:20,0.565,0.824,0.534,1.004,0.694,0.351,0.601,0.565,�k,5.6,�L
2021/09/06,11:30,0.566,0.822,0.535,1.006,0.696,0.352,0.600,0.565,�k�k��,4.9,�L
2021/09/06,11:40,0.567,0.828,0.535,1.009,0.696,0.353,0.600,0.567,�k�k��,5.3,�L
2021/09/06,11:50,0.568,0.831,0.535,1.011,0.698,0.354,0.602,0.567,�k�k��,6.2,�L
2021/09/06,12:00,0.570,0.826,0.535,1.013,0.699,0.354,0.600,0.568,�k,5.7,�L
2021/09/06,12:10,0.568,0.827,0.533,1.013,0.697,0.353,0.600,0.567,�k�k��,5.3,�L
2021/09/06,12:20,0.568,0.830,0.535,1.014,0.697,0.352,0.602,0.568,�k�k��,6.9,�L
2021/09/06,12:30,0.566,0.828,0.534,1.013,0.695,0.352,0.601,0.567,�k�k��,6.3,�L
2021/09/06,12:40,0.567,0.830,0.535,1.013,0.695,0.351,0.602,0.566,�k�k��,6.4,�L
2021/09/06,12:50,0.566,0.827,0.532,1.015,0.696,0.352,0.602,0.567,�k�k��,5.8,�L
2021/09/06,13:00,0.564,0.826,0.532,1.010,0.693,0.352,0.602,0.567,�k,6.9,�L
2021/09/06,13:10,0.564,0.826,0.532,1.012,0.693,0.351,0.602,0.567,�k,6.6,�L
2021/09/06,13:20,0.565,0.827,0.532,1.014,0.693,0.351,0.602,0.568,�k�k��,5.9,��
2021/09/06,13:30,0.565,0.829,0.532,1.012,0.695,0.351,0.602,0.567,�k�k��,7.4,��
2021/09/06,13:40,0.561,0.828,0.531,1.014,0.696,0.350,0.601,0.567,�k�k��,9.4,��
2021/09/06,13:50,0.566,0.828,0.534,1.016,0.696,0.351,0.601,0.569,�k,10.2,��
2021/09/06,14:00,0.565,0.830,0.532,1.016,0.696,0.350,0.605,0.570,�k,8.0,��
2021/09/06,14:10,0.567,0.832,0.531,1.015,0.697,0.349,0.603,0.569,�k,6.6,��
2021/09/06,14:20,0.565,0.831,0.533,1.018,0.697,0.350,0.603,0.569,�k,8.4,�L
2021/09/06,14:30,0.565,0.830,0.532,1.020,0.695,0.350,0.604,0.568,�k,8.6,�L
2021/09/06,14:40,0.565,0.830,0.531,1.019,0.698,0.350,0.603,0.568,�k�k��,6.6,�L
2021/09/06,14:50,0.567,0.831,0.530,1.021,0.696,0.349,0.602,0.568,�k�k��,7.5,��
2021/09/06,15:00,0.565,0.829,0.531,1.020,0.695,0.350,0.604,0.568,�k�k��,7.1,��
2021/09/06,15:10,0.565,0.833,0.529,1.019,0.697,0.350,0.604,0.567,�k�k��,6.8,��
2021/09/06,15:20,0.566,0.833,0.531,1.022,0.699,0.350,0.605,0.569,�k�k��,7.2,��
2021/09/06,15:30,0.565,0.834,0.531,1.022,0.698,0.349,0.604,0.568,�k�k��,7.0,��
2021/09/06,15:40,0.567,0.837,0.532,1.022,0.698,0.351,0.605,0.569,�k�k��,7.3,��
2021/09/06,15:50,0.567,0.836,0.532,1.024,0.698,0.350,0.606,0.568,�k�k��,6.9,��
2021/09/06,16:00,0.568,0.834,0.532,1.023,0.699,0.350,0.604,0.570,�k�k��,7.2,��
2021/09/06,16:10,0.567,0.837,0.532,1.025,0.699,0.349,0.605,0.571,�k�k��,6.7,��
2021/09/06,16:20,0.569,0.836,0.533,1.024,0.703,0.351,0.604,0.571,�k�k��,6.9,��
2021/09/06,16:30,0.567,0.837,0.533,1.024,0.699,0.351,0.605,0.568,�k�k��,6.6,��
2021/09/06,16:40,0.568,0.838,0.532,1.024,0.701,0.352,0.604,0.570,�k�k��,6.5,��
2021/09/06,16:50,0.568,0.837,0.533,1.027,0.699,0.351,0.606,0.572,�k�k��,6.6,��
2021/09/06,17:00,0.569,0.838,0.533,1.026,0.700,0.352,0.604,0.570,�k�k��,6.6,��
2021/09/06,17:10,0.568,0.839,0.534,1.030,0.703,0.352,0.605,0.572,�k�k��,7.0,��
2021/09/06,17:20,0.569,0.839,0.534,1.025,0.705,0.353,0.605,0.571,�k�k��,6.6,�L
2021/09/06,17:30,0.570,0.841,0.535,1.026,0.705,0.351,0.605,0.572,�k�k��,6.7,�L
2021/09/06,17:40,0.569,0.840,0.533,1.029,0.702,0.352,0.606,0.570,�k�k��,6.9,�L
2021/09/06,17:50,0.564,0.833,0.532,1.026,0.698,0.350,0.603,0.567,�k�k��,9.0,�L
2021/09/06,18:00,0.563,0.834,0.533,1.027,0.698,0.349,0.602,0.568,�k,6.2,�L
2021/09/06,18:10,0.565,0.834,0.532,1.027,0.702,0.351,0.603,0.566,�k��,9.0,�L
2021/09/06,18:20,0.564,0.834,0.531,1.026,0.700,0.352,0.604,0.569,�k�k��,11.0,��
2021/09/06,18:30,0.565,0.834,0.531,1.029,0.700,0.351,0.603,0.567,�k�k��,10.7,�L
2021/09/06,18:40,0.566,0.836,0.535,1.028,0.702,0.350,0.603,0.569,�k�k��,11.0,�L
2021/09/06,18:50,0.566,0.835,0.534,1.027,0.701,0.351,0.604,0.569,�k��,11.4,�L
2021/09/06,19:00,0.565,0.835,0.534,1.026,0.702,0.350,0.603,0.568,�k��,11.8,��
2021/09/06,19:10,0.568,0.836,0.535,1.027,0.702,0.351,0.603,0.568,�k��,11.1,�L
2021/09/06,19:20,0.566,0.837,0.534,1.030,0.702,0.350,0.605,0.568,�k��,10.7,�L
2021/09/06,19:30,0.569,0.837,0.534,1.030,0.703,0.349,0.603,0.569,�k��,9.1,�L
2021/09/06,19:40,0.567,0.838,0.534,1.029,0.703,0.351,0.603,0.568,�k�k��,7.4,�L
2021/09/06,19:50,0.568,0.837,0.534,1.029,0.703,0.350,0.604,0.568,�k�k��,6.4,�L
2021/09/06,20:00,0.570,0.837,0.533,1.031,0.703,0.350,0.604,0.569,�k��,5.3,�L
2021/09/06,20:10,0.568,0.839,0.536,1.028,0.704,0.353,0.604,0.569,�k�k��,4.3,�L
2021/09/06,20:20,0.570,0.840,0.537,1.030,0.706,0.353,0.605,0.570,�k�k��,3.8,�L
2021/09/06,20:30,0.569,0.842,0.537,1.030,0.706,0.353,0.606,0.570,�k�k��,3.3,��
2021/09/06,20:40,0.571,0.840,0.536,1.029,0.708,0.353,0.606,0.571,�k,3.2,�L
2021/09/06,20:50,0.570,0.840,0.536,1.030,0.705,0.353,0.605,0.572,�k�k��,3.0,�L
2021/09/06,21:00,0.570,0.842,0.536,1.031,0.707,0.352,0.607,0.573,�k��,3.3,�L
2021/09/06,21:10,0.570,0.841,0.537,1.033,0.708,0.353,0.606,0.574,�k�k��,5.4,�L
2021/09/06,21:20,0.570,0.839,0.535,1.030,0.706,0.352,0.605,0.574,�k�k��,6.2,�L
2021/09/06,21:30,0.568,0.842,0.534,1.029,0.707,0.353,0.606,0.572,�k�k��,7.2,�L
2021/09/06,21:40,0.567,0.838,0.534,1.027,0.707,0.352,0.604,0.572,�k�k��,5.6,�L
2021/09/06,21:50,0.565,0.833,0.533,1.025,0.702,0.350,0.603,0.571,�k�k��,6.1,�L
2021/09/06,22:00,0.564,0.833,0.531,1.027,0.701,0.349,0.602,0.568,�k�k��,6.1,�L
2021/09/06,22:10,0.563,0.828,0.531,1.025,0.701,0.350,0.602,0.567,�k�k��,5.9,�L
2021/09/06,22:20,0.565,0.832,0.530,1.026,0.700,0.349,0.602,0.568,�k��,5.2,�L
2021/09/06,22:30,0.564,0.831,0.533,1.025,0.701,0.350,0.602,0.568,�k��,5.0,�L
2021/09/06,22:40,0.565,0.832,0.531,1.026,0.701,0.350,0.603,0.567,�k��,5.3,�L
2021/09/06,22:50,0.565,0.832,0.531,1.027,0.703,0.351,0.603,0.568,�k��,6.4,��
2021/09/06,23:00,0.564,0.834,0.532,1.026,0.703,0.350,0.601,0.569,�k��,6.5,�L
2021/09/06,23:10,0.565,0.835,0.533,1.025,0.703,0.351,0.603,0.571,�k�k��,7.8,�L
2021/09/06,23:20,0.564,0.831,0.530,1.024,0.701,0.352,0.601,0.568,�k�k��,7.9,�L
2021/09/06,23:30,0.562,0.826,0.530,1.020,0.697,0.349,0.600,0.568,�k�k��,7.3,�L
2021/09/06,23:40,0.560,0.830,0.531,1.021,0.697,0.348,0.602,0.567,�k�k��,6.8,�L
2021/09/06,23:50,0.559,0.824,0.530,1.020,0.697,0.349,0.601,0.566,�k,6.5,�L
